Home   Weather   Woodbridge   Past weeks
Flag for USA

Past Weather in Woodbridge, Virginia, USA — Yesterday and Last 2 Weeks

Now
76 °F

Partly sunny.


Feels Like: 78 °F
Forecast: 87 / 70 °F
Wind: 9 mph from Southwest

Location: Reagan National Airport

Current Time: May 20, 2019 at 9:01:41 am

Latest Report: May 20, 2019 at 7:52 am


Visibility: 10 mi

Pressure: 29.91 "Hg

Humidity: 69%

Dew Point: 65 °F

Location of WoodbridgeLocation

Past Weather in Woodbridge — Graph

°F

Woodbridge Temperature Yesterday

Maximum temperature yesterday: 86 °F (at 3:52 pm)
Minimum temperature yesterday: 65 °F (at 5:52 am)
Average temperature yesterday: 75 °F

High & Low Weather Summary for the Past Weeks

 TemperatureHumidityPressure
High86 °F (May 19, 3:52 pm)94% (May 18, 6:52 am)30.22 "Hg (May 18, 6:52 am)
Low50 °F (May 13, 2:26 am)27% (May 15, 2:52 pm)29.66 "Hg (May 5, 3:52 pm)
Average66 °F73%29.94 "Hg
* Reported May 5 6:21 am — May 20 6:52 am, Woodbridge. Weather by CustomWeather, © 2019

Note: Actual official high and low records may vary slightly from our data, if they occured in-between our weather recording intervals... More about our weather records

Advertising

Woodbridge Weather History for the Previous 24 Hours

Scroll right to see more
 ConditionsComfort  
Time TempWeatherWind HumidityBarometerVisibility
6:52 am
Mon, May 20
74 °FPartly sunny.12 mph69%29.90 "Hg10 mi
5:52 am74 °FOvercast.12 mph69%29.89 "Hg10 mi
4:52 am75 °FPassing clouds.14 mph66%29.88 "Hg10 mi
3:52 am75 °FPassing clouds.10 mph66%29.88 "Hg10 mi
2:52 am75 °FMostly cloudy.10 mph69%29.89 "Hg10 mi
1:52 am76 °FMostly cloudy.9 mph67%29.90 "Hg10 mi
12:52 am74 °FPassing clouds.10 mph71%29.90 "Hg10 mi
11:52 pm
Sun, May 19
75 °FClear.9 mph69%29.90 "Hg10 mi
10:52 pm76 °FPassing clouds.10 mph67%29.91 "Hg10 mi
9:52 pm78 °FPassing clouds.12 mph62%29.90 "Hg10 mi
8:52 pm81 °FPassing clouds.12 mph58%29.87 "Hg10 mi
7:52 pm82 °FPartly sunny.8 mph58%29.88 "Hg10 mi
6:52 pm83 °FPartly sunny.13 mph59%29.86 "Hg10 mi
5:52 pm85 °FPartly sunny.14 mph59%29.88 "Hg10 mi
4:52 pm85 °FPartly sunny.15 mph59%29.90 "Hg10 mi
3:52 pm86 °FPartly sunny.10 mph61%29.92 "Hg10 mi
2:52 pm83 °FBroken clouds.13 mph68%29.95 "Hg10 mi
1:52 pm84 °FBroken clouds.13 mph63%29.97 "Hg10 mi
12:52 pm83 °FBroken clouds.8 mph65%30.00 "Hg10 mi
11:52 am80 °FSunny.8 mph69%30.01 "Hg10 mi
10:52 am77 °FPartly sunny.8 mph74%30.02 "Hg10 mi
9:52 am74 °FPartly sunny.6 mph79%30.03 "Hg10 mi
Weather by CustomWeather, © 2019

See weather overview